Flag for Switzerland Weather past 2 weeks in Burgdorf, Bern, Switzerland

Now
48 °F

Passing clouds.


Feels Like: 46 °F
Forecast: 28 / 53 °F
Wind: 5 mph from Northeast

Location: Bern / Belp

Current Time: Oct 23, 2014 at 6:54:37 PM

Latest Report: Oct 23, 2014 at 6:20 PM


Visibility: N/A

Pressure: 30.21 "Hg

Humidity: 62%

Dew point: 36 °F

Location of BurgdorfLocation

Historic Weather in Burgdorf — Graph

°F

Burgdorf temperature yesterday

Maximum temperature yesterday: 48 °F (at 12:20 AM)
Minimum temperature yesterday: 39 °F (at 8:50 AM)
Average temperature yesterday: 44 °F

Past Weeks' High & Low Weather Summary

 TemperatureHumidityPressure
High73 °F (Oct 9, 3:20 PM)100% (Oct 8, 8:50 PM)30.30 "Hg (Oct 8, 8:50 PM)
Low39 °F (Oct 22, 8:50 AM)50% (Oct 9, 3:20 PM)29.77 "Hg (Oct 13, 4:50 AM)
Average56 °F87%30.01 "Hg
* Reported Oct 8 5:20 PM — Oct 23 5:50 PM, Burgdorf, Weather by CustomWeather, © 2014

Note: Actual official high and low records may vary slightly from our data, if they occured in-between our weather recording intervals... More about our weather records

Advertising

Burgdorf weather history for previous 24 hours

 ConditionsComfort  
Time TempWeatherWind HumidityBarometerVisibility
5:50 PM
Oct 23
50 °FPassing clouds.5 mph54%30.21 "HgN/A
5:20 PM50 °FPassing clouds.5 mph58%30.21 "HgN/A
4:50 PM52 °FPassing clouds.6 mph54%30.21 "HgN/A
4:20 PM50 °FScattered clouds.5 mph54%30.21 "HgN/A
3:50 PM50 °FScattered clouds.7 mph58%30.24 "HgN/A
3:20 PM52 °FScattered clouds.6 mph54%30.24 "HgN/A
2:50 PM50 °FCool.5 mph58%30.24 "HgN/A
2:20 PM50 °FPartly sunny.6 mph58%30.27 "HgN/A
1:50 PM52 °FBroken clouds.7 mph58%30.27 "HgN/A
1:20 PM52 °FScattered clouds.3 mph58%30.27 "HgN/A
12:50 PM52 °FScattered clouds.6 mph62%30.30 "HgN/A
12:20 PM48 °FScattered clouds.6 mph71%30.30 "HgN/A
11:50 AM48 °FScattered clouds.3 mph71%30.30 "HgN/A
11:20 AM48 °FScattered clouds.2 mph76%30.30 "HgN/A
10:50 AM46 °FScattered clouds.1 mph76%30.30 "HgN/A
10:20 AM45 °FSunny.3 mph87%30.30 "Hg10 mi
9:50 AM43 °FPassing clouds.3 mph93%30.30 "HgN/A
9:20 AM41 °FPassing clouds.2 mph93%30.30 "HgN/A
8:50 AM41 °FPassing clouds.3 mph93%30.27 "HgN/A
8:20 AM41 °FPassing clouds.1 mph100%30.27 "HgN/A
7:50 AM41 °FPassing clouds.2 mph93%30.27 "HgN/A
7:20 AM41 °FPassing clouds.1 mph100%30.27 "HgN/A
6:50 AM41 °FPassing clouds.2 mph93%30.27 "HgN/A
6:20 AM41 °FPassing clouds.3 mph93%30.27 "HgN/A
5:50 AM43 °FLight rain. Passing clouds.2 mph87%30.30 "HgN/A
5:20 AM43 °FLight rain. Partly cloudy.3 mph87%30.30 "Hg5 mi
4:50 AM43 °FMostly cloudy.2 mph81%30.27 "HgN/A
4:20 AM43 °FPassing clouds.3 mph81%30.30 "HgN/A
3:50 AM43 °FPassing clouds.2 mph81%30.30 "HgN/A
3:20 AM43 °FPassing clouds.6 mph81%30.30 "HgN/A
2:50 AM43 °FMostly cloudy.10 mph81%30.30 "HgN/A
2:20 AM43 °FPartly cloudy.9 mph81%30.30 "HgN/A
1:50 AM43 °FPartly cloudy.6 mph81%30.30 "HgN/A
1:20 AM43 °FPassing clouds.7 mph81%30.30 "HgN/A
12:50 AM43 °FPassing clouds.7 mph81%30.27 "HgN/A
12:20 AM43 °FPassing clouds.7 mph81%30.30 "HgN/A
11:50 PM
Oct 22
43 °FPartly cloudy.6 mph81%30.27 "HgN/A
11:20 PM43 °FPassing clouds.10 mph81%30.27 "HgN/A
10:50 PM43 °FPartly cloudy.8 mph81%30.27 "HgN/A
10:20 PM41 °FPassing clouds.6 mph93%30.27 "HgN/A
9:50 PM41 °FPartly cloudy.2 mph87%30.27 "HgN/A
9:20 PM41 °FLight rain. Passing clouds.6 mph87%30.27 "HgN/A
8:50 PM43 °FPassing clouds.12 mph81%30.27 "HgN/A
8:20 PM43 °FPartly cloudy.8 mph76%30.27 "HgN/A
7:50 PM41 °FPartly cloudy.10 mph81%30.27 "HgN/A
7:20 PM43 °FLight rain. Partly sunny.15 mph76%30.27 "Hg4 mi
6:50 PM43 °FBroken clouds.8 mph71%30.21 "HgN/A
6:20 PM45 °FBroken clouds.8 mph66%30.21 "HgN/A
Weather by CustomWeather, © 2014

See weather overviewHow to use our weather pages